When you browse on this site, cookies collect data to enhance your experience and personalize the content and advertising you see.
Visit our Privacy Policy to learn more. By continuing to use the site, you agree to this use of cookies and data.
  • In Hungary
  • List of Countries
  • For 7 days
  • Water Temperature
  • Satellite Maps
  • Weather Map
  • News
  • Weather Widgets
  • user-avatar
    Login

    Hourly Weather Fellbach

    Today, 19 February, Tuesday

    Time Temperature Precipitation Wind Pressure Humidity
    00:00 +7°C° 0 mm 1 mps 736 mmHg 77%
    01:00 +7°C° 0 mm 1 mps 736 mmHg 79%
    02:00 +6°C° 0 mm 1 mps 736 mmHg 78%
    03:00 +5°C° 0 mm 2 mps 736 mmHg 78%
    04:00 +5°C° 0 mm 2 mps 736 mmHg 77%
    05:00 +4°C° 0 mm 2 mps 736 mmHg 78%
    06:00 +4°C° 0 mm 2 mps 736 mmHg 78%
    07:00 +4°C° 0 mm 2 mps 736 mmHg 79%
    08:00 +5°C° 0 mm 2 mps 736 mmHg 77%
    09:00 +6°C° 0 mm 2 mps 736 mmHg 75%
    10:00 +8°C° 0 mm 2 mps 737 mmHg 73%
    11:00 +9°C° 0 mm 3 mps 737 mmHg 71%
    12:00 +10°C° 0 mm 3 mps 737 mmHg 69%
    13:00 +12°C° 0 mm 4 mps 737 mmHg 67%
    14:00 +11°C° 0.1 mm 3 mps 736 mmHg 71%
    15:00 +10°C° 0.1 mm 3 mps 736 mmHg 75%
    16:00 +9°C° 0.1 mm 3 mps 736 mmHg 79%
    17:00 +8°C° 0 mm 2 mps 737 mmHg 83%
    18:00 +7°C° 0 mm 2 mps 737 mmHg 87%
    19:00 +7°C° 0 mm 1 mps 737 mmHg 92%
    20:00 +7°C° 0 mm 1 mps 737 mmHg 92%
    21:00 +7°C° 0 mm 1 mps 738 mmHg 93%
    22:00 +6°C° 0 mm 1 mps 738 mmHg 94%
    23:00 +6°C° 0 mm 1 mps 738 mmHg 94%

    Tomorrow, 20 February, Wednesday

    Time Temperature Precipitation Wind Pressure Humidity
    00:00 +6°C° 0 mm 1 mps 738 mmHg 95%
    01:00 +4°C° 0 mm 0 mps 739 mmHg 95%
    02:00 +4°C° 0 mm 0 mps 739 mmHg 95%
    03:00 +4°C° 0 mm 0 mps 738 mmHg 94%
    04:00 +4°C° 0 mm 0 mps 738 mmHg 94%
    05:00 +4°C° 0 mm 0 mps 738 mmHg 94%
    06:00 +4°C° 0 mm 0 mps 739 mmHg 94%
    07:00 +4°C° 0 mm 0 mps 739 mmHg 93%
    08:00 +5°C° 0 mm 0 mps 739 mmHg 89%
    09:00 +6°C° 0 mm 0 mps 739 mmHg 85%
    10:00 +7°C° 0 mm 0 mps 740 mmHg 81%
    11:00 +9°C° 0 mm 1 mps 740 mmHg 77%
    12:00 +10°C° 0 mm 1 mps 740 mmHg 72%
    13:00 +11°C° 0 mm 1 mps 740 mmHg 67%
    14:00 +11°C° 0 mm 1 mps 740 mmHg 66%
    15:00 +11°C° 0 mm 1 mps 739 mmHg 65%
    16:00 +11°C° 0 mm 1 mps 739 mmHg 64%
    17:00 +10°C° 0 mm 1 mps 740 mmHg 70%
    18:00 +8°C° 0 mm 0 mps 740 mmHg 75%
    19:00 +7°C° 0 mm 0 mps 740 mmHg 80%
    20:00 +6°C° 0 mm 0 mps 741 mmHg 82%
    21:00 +7°C° 0 mm 1 mps 741 mmHg 83%
    22:00 +7°C° 0 mm 1 mps 741 mmHg 85%
    23:00 +6°C° 0 mm 1 mps 741 mmHg 86%

    Day after tomorrow, 21 February, Thursday

    Time Temperature Precipitation Wind Pressure Humidity
    00:00 +6°C° 0 mm 1 mps 741 mmHg 87%
    01:00 +6°C° 0 mm 1 mps 741 mmHg 87%
    02:00 +6°C° 0 mm 1 mps 741 mmHg 88%
    03:00 +5°C° 0 mm 1 mps 741 mmHg 88%
    04:00 +5°C° 0 mm 1 mps 741 mmHg 88%
    05:00 +5°C° 0 mm 1 mps 742 mmHg 88%
    06:00 +5°C° 0 mm 1 mps 742 mmHg 88%
    07:00 +5°C° 0 mm 1 mps 742 mmHg 87%
    08:00 +6°C° 0 mm 1 mps 742 mmHg 82%
    09:00 +8°C° 0 mm 1 mps 743 mmHg 78%
    10:00 +9°C° 0 mm 1 mps 743 mmHg 73%
    11:00 +10°C° 0 mm 1 mps 743 mmHg 69%
    12:00 +10°C° 0 mm 2 mps 743 mmHg 65%
    13:00 +13°C° 0 mm 2 mps 743 mmHg 61%
    14:00 +13°C° 0 mm 2 mps 743 mmHg 62%
    15:00 +13°C° 0 mm 2 mps 743 mmHg 63%
    16:00 +13°C° 0 mm 2 mps 743 mmHg 64%
    17:00 +10°C° 0 mm 2 mps 743 mmHg 70%
    18:00 +10°C° 0 mm 1 mps 744 mmHg 77%
    19:00 +8°C° 0 mm 1 mps 744 mmHg 84%
    20:00 +8°C° 0 mm 1 mps 745 mmHg 85%
    21:00 +8°C° 0 mm 1 mps 745 mmHg 86%
    22:00 +7°C° 0 mm 1 mps 746 mmHg 87%
    23:00 +7°C° 0 mm 1 mps 746 mmHg 88%

    22 February, Friday

    Time Temperature Precipitation Wind Pressure Humidity
    00:00 +7°C° 0 mm 1 mps 746 mmHg 89%
    01:00 +6°C° 0 mm 1 mps 746 mmHg 90%
    02:00 +6°C° 0 mm 1 mps 746 mmHg 90%
    03:00 +6°C° 0 mm 1 mps 746 mmHg 91%
    04:00 +5°C° 0 mm 0 mps 746 mmHg 91%
    05:00 +4°C° 0 mm 0 mps 747 mmHg 92%
    06:00 +4°C° 0 mm 0 mps 747 mmHg 92%
    07:00 +4°C° 0 mm 0 mps 747 mmHg 92%
    08:00 +5°C° 0 mm 0 mps 747 mmHg 88%
    09:00 +7°C° 0 mm 0 mps 748 mmHg 84%
    10:00 +8°C° 0 mm 0 mps 748 mmHg 80%
    11:00 +9°C° 0 mm 0 mps 748 mmHg 75%
    12:00 +12°C° 0 mm 1 mps 748 mmHg 70%
    13:00 +13°C° 0 mm 1 mps 748 mmHg 65%
    14:00 +13°C° 0 mm 1 mps 748 mmHg 66%
    15:00 +13°C° 0 mm 1 mps 748 mmHg 66%
    16:00 +13°C° 0 mm 1 mps 747 mmHg 66%
    17:00 +12°C° 0 mm 1 mps 748 mmHg 72%
    18:00 +9°C° 0 mm 2 mps 748 mmHg 79%
    19:00 +8°C° 0 mm 2 mps 748 mmHg 85%
    20:00 +8°C° 0 mm 2 mps 748 mmHg 87%
    21:00 +7°C° 0 mm 2 mps 748 mmHg 88%
    22:00 +7°C° 0 mm 2 mps 748 mmHg 90%
    23:00 +7°C° 0 mm 2 mps 748 mmHg 91%

    23 February, Saturday

    Time Temperature Precipitation Wind Pressure Humidity
    00:00 +6°C° 0 mm 2 mps 748 mmHg 91%
    01:00 +5°C° 0 mm 2 mps 748 mmHg 92%
    02:00 +5°C° 0 mm 2 mps 748 mmHg 92%
    03:00 +5°C° 0 mm 2 mps 747 mmHg 93%
    04:00 +5°C° 0 mm 1 mps 747 mmHg 93%
    05:00 +5°C° 0 mm 1 mps 747 mmHg 93%
    06:00 +4°C° 0 mm 1 mps 747 mmHg 93%
    07:00 +4°C° 0 mm 1 mps 747 mmHg 93%
    08:00 +4°C° 0 mm 2 mps 747 mmHg 90%
    09:00 +4°C° 0 mm 2 mps 747 mmHg 86%
    10:00 +4°C° 0 mm 3 mps 748 mmHg 83%
    11:00 +7°C° 0 mm 3 mps 747 mmHg 74%
    12:00 +8°C° 0 mm 3 mps 747 mmHg 66%
    13:00 +10°C° 0 mm 3 mps 747 mmHg 58%
    14:00 +10°C° 0 mm 3 mps 747 mmHg 55%
    15:00 +10°C° 0 mm 3 mps 747 mmHg 53%
    16:00 +11°C° 0 mm 3 mps 747 mmHg 51%
    17:00 +9°C° 0 mm 2 mps 747 mmHg 54%
    18:00 +7°C° 0 mm 2 mps 747 mmHg 57%
    19:00 +6°C° 0 mm 2 mps 747 mmHg 60%
    20:00 +5°C° 0 mm 2 mps 747 mmHg 59%
    21:00 +5°C° 0 mm 2 mps 747 mmHg 58%
    22:00 +5°C° 0 mm 1 mps 747 mmHg 57%
    23:00 +5°C° 0 mm 1 mps 747 mmHg 56%

    24 February, Sunday

    Time Temperature Precipitation Wind Pressure Humidity
    00:00 +4°C° 0 mm 1 mps 747 mmHg 54%
    01:00 +4°C° 0 mm 1 mps 747 mmHg 53%
    02:00 +4°C° 0 mm 1 mps 747 mmHg 52%
    03:00 +4°C° 0 mm 1 mps 747 mmHg 51%
    04:00 +4°C° 0 mm 1 mps 747 mmHg 50%
    05:00 +3°C° 0 mm 1 mps 747 mmHg 50%
    06:00 +3°C° 0 mm 1 mps 747 mmHg 50%
    07:00 +3°C° 0 mm 1 mps 747 mmHg 50%
    08:00 +5°C° 0 mm 1 mps 747 mmHg 48%
    09:00 +6°C° 0 mm 1 mps 747 mmHg 46%
    10:00 +8°C° 0 mm 1 mps 747 mmHg 43%
    11:00 +9°C° 0 mm 1 mps 747 mmHg 42%
    12:00 +10°C° 0 mm 2 mps 747 mmHg 41%
    13:00 +13°C° 0 mm 2 mps 747 mmHg 41%
    14:00 +13°C° 0 mm 2 mps 746 mmHg 43%
    15:00 +13°C° 0 mm 2 mps 746 mmHg 45%
    16:00 +13°C° 0 mm 2 mps 746 mmHg 48%
    17:00 +10°C° 0 mm 2 mps 746 mmHg 54%
    18:00 +9°C° 0 mm 2 mps 746 mmHg 60%
    19:00 +8°C° 0 mm 1 mps 747 mmHg 66%
    20:00 +7°C° 0 mm 1 mps 747 mmHg 67%
    21:00 +7°C° 0 mm 1 mps 747 mmHg 68%
    22:00 +6°C° 0 mm 1 mps 747 mmHg 69%
    23:00 +6°C° 0 mm 1 mps 746 mmHg 69%
    Show more